Home   Weather   Sunderland   Past weeks

Flag for United Kingdom Past Weather in Sunderland, England, United Kingdom — Yesterday and Last 2 Weeks

Now
66 °F

Scattered clouds.


Feels Like: 66 °F
Forecast: 53 / 63 °F
Wind: 14 mph from Southwest

Location: Newcastle

Current Time: Sep 28, 2016 at 4:38:30 PM

Latest Report: Sep 28, 2016 at 4:20 PM


Visibility: N/A

Pressure: 29.89 "Hg

Humidity: 83%

Dew Point: 61 °F

Location of SunderlandLocation

Past Weather in Sunderland — Graph

°F

Sunderland Temperature Yesterday

Maximum temperature yesterday: 64 °F (at 11:50 AM)
Minimum temperature yesterday: 50 °F (at 12:20 AM)
Average temperature yesterday: 57 °F

High & Low Weather Summary for the Past Weeks

 TemperatureHumidityPressure
High75 °F (Sep 13, 3:20 PM)100% (Sep 13, 10:20 PM)30.21 "Hg (Sep 13, 10:20 PM)
Low43 °F (Sep 23, 4:20 AM)52% (Sep 22, 2:20 PM)29.62 "Hg (Sep 25, 5:20 AM)
Average56 °F86%30.00 "Hg
* Reported Sep 13 3:20 PM — Sep 28 3:20 PM, Sunderland, Weather by CustomWeather, © 2016

Note: Actual official high and low records may vary slightly from our data, if they occured in-between our weather recording intervals... More about our weather records

Advertising

Sunderland Weather History for the Previous 24 Hours

Scroll right to see more
 ConditionsComfort  
Time TempWeatherWind HumidityBarometerVisibility
3:20 PM
Wed, Sep 28
66 °FScattered clouds.14 mph83%29.92 "HgN/A
2:50 PM66 °FScattered clouds.12 mph78%29.95 "HgN/A
2:20 PM64 °FScattered clouds.13 mph83%29.95 "HgN/A
1:50 PM64 °FScattered clouds.18 mph83%29.95 "HgN/A
1:20 PM64 °FScattered clouds.15 mph83%29.95 "HgN/A
12:50 PM66 °FScattered clouds.14 mph73%29.98 "HgN/A
12:20 PM64 °FPassing clouds.10 mph73%29.98 "HgN/A
11:50 AM63 °FScattered clouds.12 mph77%30.01 "HgN/A
11:20 AM61 °FPassing clouds.7 mph83%30.04 "HgN/A
10:50 AM61 °FPassing clouds.10 mph77%30.01 "HgN/A
10:20 AM59 °FScattered clouds.8 mph82%30.04 "HgN/A
9:50 AM61 °FScattered clouds.12 mph77%30.04 "HgN/A
9:20 AM57 °FScattered clouds.10 mph88%30.04 "HgN/A
8:50 AM57 °FScattered clouds.13 mph82%30.04 "HgN/A
8:20 AM57 °FPassing clouds.13 mph82%30.04 "HgN/A
7:50 AM55 °FPassing clouds.14 mph82%30.04 "HgN/A
7:20 AM55 °FPassing clouds.13 mph82%30.01 "HgN/A
6:50 AM55 °FPassing clouds.10 mph82%30.01 "HgN/A
6:20 AM55 °FPassing clouds.10 mph82%30.01 "HgN/A
5:50 AM55 °FPassing clouds.13 mph77%30.01 "HgN/A
5:20 AM55 °FPassing clouds.14 mph82%30.01 "HgN/A
4:50 AM55 °FPassing clouds.20 mph82%29.98 "HgN/A
4:20 AM55 °FPassing clouds.21 mph82%29.98 "HgN/A
3:50 AM55 °FPassing clouds.21 mph82%29.98 "HgN/A
3:20 AM55 °FPassing clouds.18 mph82%29.98 "HgN/A
2:50 AM55 °FPassing clouds.16 mph77%29.98 "HgN/A
2:20 AM55 °FPassing clouds.14 mph72%29.98 "HgN/A
1:50 AM57 °FPassing clouds.15 mph67%29.98 "HgN/A
1:20 AM57 °FPassing clouds.12 mph72%29.98 "HgN/A
12:50 AM55 °FPassing clouds.9 mph77%29.95 "HgN/A
12:20 AM57 °FPassing clouds.8 mph72%29.98 "HgN/A
11:50 PM
Tue, Sep 27
57 °FPassing clouds.8 mph77%29.98 "HgN/A
11:20 PM57 °FPassing clouds.9 mph77%29.98 "HgN/A
10:50 PM55 °FPassing clouds.13 mph82%29.98 "HgN/A
10:20 PM57 °FPassing clouds.13 mph77%29.98 "HgN/A
9:50 PM57 °FPassing clouds.12 mph77%30.01 "HgN/A
9:20 PM57 °FPassing clouds.13 mph77%30.01 "HgN/A
8:50 PM57 °FPassing clouds.12 mph72%30.01 "HgN/A
8:20 PM57 °FPassing clouds.12 mph67%30.01 "HgN/A
7:50 PM57 °FPassing clouds.17 mph67%29.98 "HgN/A
7:20 PM57 °FPassing clouds.18 mph72%29.98 "HgN/A
6:50 PM57 °FPassing clouds.16 mph72%30.01 "HgN/A
6:20 PM57 °FPassing clouds.18 mph72%30.01 "HgN/A
5:50 PM59 °FPassing clouds.16 mph72%30.01 "HgN/A
5:20 PM59 °FPassing clouds.15 mph68%30.01 "HgN/A
4:50 PM59 °FPassing clouds.22 mph68%30.01 "HgN/A
4:20 PM61 °FPassing clouds.21 mph68%29.98 "HgN/A
Weather by CustomWeather, © 2016

See weather overviewHow to use our weather pages